EUTELSAT 7 WEST A

Last updated on Sat Dec 13 2025 00:02:47 GMT+0000 (Coordinated Universal Time)

1 37816U 11051A 25346.20356532 -.00000051 00000+0 00000+0 0 9994 2 37816 0.0647 341.7455 0005648 245.5287 279.8579 1.00271328 52007
UTC large
Height (km)
Speed (km/s)
/
Latitude / Longitude
Inclination (degrees)
Orbital Period (minutes)
Azimuth
Elevation
Range (km)
Doppler Factor

Next 0 passes for location: London (51.5072 / 0.1276)

Sorry there are no passes over London.